DECAYED

STARLINK-34268, 64496 (Decayed)

Orbit data source: Space-Track

STARLINK-34268, 64496 was a payload satellite owned by SpaceX/Seattle (US) in LEO that was launched on Mon, 23 Jun 2025 UTC via an FALCON 9 launch vehicle from the Air Force Eastern Test Range (AFETR). Payload-class satellites include a variety of spacecraft equipped with specific instruments for various scientific and technological missions. These include communications satellites like Starlink; space stations such as the ISS; scientific satellites like the Hubble; Earth observation satellites from companies like Planet Labs, Umbra, and HawkEye 360; GPS; miniature CubeSats for education and research; and military/defense satellites.

Not visible in the next 10 days
Identifier
64496, 2025-133AA
Orbit
Decayed
Country
Flag of USUS
Related business
Manufacturer
SpaceX/Seattle
Mission
Decayed Commercial Communications
Bus & Motor
STARLINK V2MO, Unknown motor
Mass
575 kg wet, ~530 kg dry
Launch date (UTC)
2025-06-23 (1 year ago)
Launch vehicle
FALCON 9
Launch site
Air Force Eastern Test Range (AFETR)
Object type
Payload
Rocket body
Debris
Shape & HBR
Box + 2 Pan, 17.7 m
Radar Cross Section
36.964 m², Large (>1 m²)

Expand to show TLE details & history
Last TLE update: 2 months ago

TLE from 2 months ago
0 STARLINK-34268
1 64496U 25133AA  26116.51639572  .15587334  12035-4  30644-2 0  9997
2 64496  53.1508 247.9268 0005332 222.2456 137.8178 16.30835873 48604
Epoch: 2026-04-26T12:23Z
TLE epoch observation values (Epoch: 2026-04-26T12:23:36.590Z)
Latitude
Longitude
-152.49495°
Altitude
193.828 km
Speed
7.79 km/s
True Right ascension
16h 31m 42s
True Declination
0° 00' 00"
Sunlit
Object was in full shadow at epoch
Visualization orbit readout
Latitude
Unknown
Longitude
Unknown
Altitude
Unknown
Speed
Unknown
Apparent Right ascension
Unknown
Apparent Declination
Unknown
Sunlit
N/A
Visualization observer readout
Local Sidereal Time
11:43:26
Azimuth
Unknown
Elevation
Unknown
Doppler factor
Unknown
Orbital elements
Apogee altitude
194.066 km
Perigee altitude
187.061 km
Semi-major axis
6,568.7 km
Eccentricity
0.00053
Inclination
53.1508°
RAAN
247.9268°
Arg. of periapsis
222.2456°
True anomaly
137.85881°
Mean anomaly
137.8178°
Eccentric anomaly
137.83831°
Mean motion
4.07684 °/min
Orbital period
88.3 mins
BSTAR
0.0030644
Loading maneuver chart data...
Computing Atmospheric mass density...
Loading historical data...
Loading historical data...
Loading historical data...
Loading historical data...
Loading historical data...
Loading historical data...
Loading historical data...

Documentation

Showing up to 5 results
|